This is the latest recevied weather packets stored in our database for station/object JH5EWP-13. If no packets are shown the sender has not sent any weather packets the latest 10 day(s).
| Time | Temp. | Humidity | Pressure | Rain* | Wind** | Luminosity | Snow |
|---|---|---|---|---|---|---|---|
| 1778219483 | 22.22° C | 49% | 1000.7 hPa | 0 mm | - | - | - |
| 1778218584 | 22.22° C | 48% | 1000.7 hPa | 0 mm | - | - | - |
| 1778217684 | 21.67° C | 52% | 1000.8 hPa | 0 mm | - | - | - |
| 1778216784 | 22.22° C | 52% | 1000.7 hPa | 0 mm | - | - | - |
| 1778215883 | 22.22° C | 52% | 1001 hPa | 0 mm | - | - | - |
| 1778214982 | 22.78° C | 49% | 1000.8 hPa | 0 mm | - | - | - |
| 1778214084 | 22.22° C | 53% | 1000.7 hPa | 0 mm | - | - | - |
| 1778213184 | 22.22° C | 52% | 1001 hPa | 0 mm | - | - | - |
| 1778212283 | 22.22° C | 53% | 1001 hPa | 0 mm | - | - | - |
| 1778211383 | 21.67° C | 52% | 1001.1 hPa | 0 mm | - | - | - |
| 1778210483 | 21.11° C | 52% | 1001 hPa | 0 mm | - | - | - |
| 1778209583 | 21.11° C | 52% | 1001 hPa | 0 mm | - | - | - |
| 1778208683 | 21.11° C | 57% | 1001 hPa | 0 mm | - | - | - |
| 1778207784 | 21.11° C | 62% | 1001.3 hPa | 0 mm | - | - | - |
| 1778206884 | 20.56° C | 62% | 1001.3 hPa | 0 mm | - | - | - |
| 1778205983 | 20.56° C | 62% | 1001.3 hPa | 0 mm | - | - | - |
| 1778205084 | 21.11° C | 63% | 1001.3 hPa | 0 mm | - | - | - |
| 1778204184 | 20.56° C | 62% | 1001.4 hPa | 0 mm | - | - | - |
| 1778203283 | 21.11° C | 61% | 1001.2 hPa | 0 mm | - | - | - |
| 1778202384 | 21.67° C | 62% | 1001.3 hPa | 0 mm | - | - | - |
| 1778201484 | 21.67° C | 62% | 1001 hPa | 0 mm | - | - | - |
| 1778200584 | 21.67° C | 62% | 1000.7 hPa | 0 mm | - | - | - |
| 1778199682 | 21.11° C | 64% | 1001 hPa | 0 mm | - | - | - |
| 1778198783 | 20.56° C | 64% | 1000.8 hPa | 0 mm | - | - | - |
| 1778197883 | 20.56° C | 64% | 1001.1 hPa | 0 mm | - | - | - |
* Rain latest hour (hover to see other rain measurements)
** Current wind speed in m/s (hover to see current wind gust speed)